DIRECTV 12

Last updated on Wed Sep 17 2025 00:02:47 GMT+0000 (Coordinated Universal Time)

1 36131U 09075A 25259.56336525 -.00000123 00000+0 00000+0 0 9998 2 36131 0.0389 3.4238 0000168 182.2812 270.1402 1.00270008 43815
UTC large
Height (km)
Speed (km/s)
/
Latitude / Longitude
Inclination (degrees)
Orbital Period (minutes)
Azimuth
Elevation
Range (km)
Doppler Factor

Next 0 passes for location: London (51.5072 / 0.1276)

Sorry there are no passes over London.